[[{"header":{"parameterUnit":"m.s-1","parameterCategory":1,"la1":30.2991,"la2":30.254,"lo1":-89.0895,"lo2":-89.0444,"dx":0.0017,"dy":0.0017,"nx":28,"ny":28,"refTime":"2022-11-15T09:00:00:Z","depth":0,"parameterNumber":2,"parameterNumberName":"U-component_of_WINDS"},"data":[0,0,0,0,0,0,0,0,0,0,0,0,0,0,0,0,0,0,0,0,0,0,0,0,0,0,0,0,0,0,0,0,0,0,0,0,0,0,0,0,0,0,0,0,0,0,0,0,0,0,0,0,0,0,0,0,0,0,-0.2486,-0.2487,0,-0.2591,-0.2592,-0.2593,-0.258,-0.2579,-0.2577,-0.2575,-0.2687,-0.2691,-0.2696,0,0,0,0,0,0,0,0,0,0,0,0,0,-0.2277,-0.2281,-0.2486,-0.2487,-0.2488,-0.259,-0.2592,-0.2593,-0.2581,-0.2579,-0.2576,-0.2575,-0.2685,-0.269,-0.2696,0,0,0,0,0,0,0,0,0,0,0,0,0,-0.2373,-0.2282,-0.2485,-0.2494,-0.2496,-0.259,-0.2592,-0.2594,-0.2581,-0.2579,-0.2576,-0.2574,-0.2683,-0.269,-0.2697,-0.279,0,0,-0.2718,-0.2721,0,0,0,0,0,0,0,0,-0.2368,-0.2381,-0.2492,-0.2494,-0.2496,-0.257,-0.2559,-0.266,-0.2582,-0.2549,-0.2575,-0.2572,-0.265,-0.2659,-0.2685,-0.2795,-0.28,-0.2718,-0.2722,-0.2725,-0.2727,0,0,0,0,0,0,0,-0.2361,-0.2377,-0.2527,-0.2493,-0.2496,-0.2494,-0.2505,-0.2578,-0.2613,-0.2552,-0.2551,-0.2563,-0.2651,-0.2678,-0.2687,-0.2802,-0.2718,-0.2724,-0.2728,-0.2731,-0.2994,-0.2997,0,0,0,0,0,0,-0.2352,-0.2371,-0.2524,-0.253,-0.2424,-0.25,-0.2512,-0.2549,-0.2612,-0.2619,-0.2565,-0.2562,-0.2668,-0.2679,-0.2691,-0.2806,-0.2725,-0.2732,-0.2736,-0.2991,-0.2995,-0.2998,0,0,0,0,0,0,-0.2348,-0.2366,-0.252,-0.2451,-0.247,-0.2506,-0.2548,-0.2552,-0.258,-0.2622,-0.2629,-0.2587,-0.2666,-0.2682,-0.2765,-0.2809,-0.2735,-0.2741,-0.2988,-0.2992,-0.2996,-0.3034,0,0,0,0,0,0,-0.2342,-0.2364,-0.24,-0.2451,-0.2474,-0.2592,-0.255,-0.2556,-0.2591,-0.2588,-0.2644,-0.2651,-0.2666,-0.2755,-0.2772,-0.2817,-0.2746,-0.2984,-0.299,-0.2995,-0.3029,-0.3039,-0.3048,0,0,0,0,0,-0.2334,-0.2407,-0.2401,-0.242,-0.2519,-0.2594,-0.2607,-0.2621,-0.2595,-0.2631,-0.2658,-0.2649,-0.2801,-0.2764,-0.2783,-0.2831,-0.2982,-0.2988,-0.2995,-0.3025,-0.3037,-0.3048,0,0,0,0,0,0,-0.2361,-0.2414,-0.2409,-0.25,-0.2542,-0.2592,-0.2638,-0.2633,-0.2686,-0.2681,-0.2697,-0.271,-0.2794,-0.282,-0.2778,-0.2924,-0.2888,-0.2898,-0.2905,-0.2917,-0.2926,-0.2919,-0.2752,0,0,0,0,0,-0.2377,-0.2433,-0.2477,-0.2553,-0.2575,-0.2603,-0.2636,-0.2643,-0.2688,-0.2706,-0.274,-0.2785,-0.2843,-0.2881,-0.2936,-0.3032,-0.3045,-0.3074,-0.3083,-0.3091,-0.3101,-0.3154,-0.3168,-0.3019,-0.3019,-0.3019,0,0,-0.2412,-0.2448,-0.2483,-0.2559,-0.2593,-0.2652,-0.2618,-0.2681,-0.2725,-0.2717,-0.2798,-0.2823,-0.2875,-0.2965,-0.3007,-0.299,-0.3144,-0.3099,-0.3105,-0.3111,-0.3162,-0.3176,-0.3188,-0.3024,-0.3023,-0.3022,0,0,-0.2506,-0.2538,-0.2606,-0.2639,-0.269,-0.2708,-0.2724,-0.2774,-0.279,-0.2871,-0.2866,-0.2918,-0.3018,-0.3055,-0.3086,-0.3192,-0.3186,-0.3209,-0.3259,-0.3311,-0.3323,-0.3333,-0.3372,-0.3386,-0.3218,-0.3219,-0.3219,0,-0.2544,-0.2631,-0.2641,-0.2705,-0.274,-0.2732,-0.2801,-0.2834,-0.2901,-0.2925,-0.2904,-0.3028,-0.3062,-0.3161,-0.3186,-0.3212,-0.3232,-0.3205,-0.332,-0.333,-0.334,-0.3378,-0.3392,-0.3221,-0.3221,-0.3221,-0.322,0,-0.2675,-0.2735,-0.2784,-0.2847,-0.2886,-0.2953,-0.2974,-0.3013,-0.3015,-0.3036,-0.3118,-0.3158,-0.3222,-0.3245,-0.3249,-0.3345,-0.3333,-0.3316,-0.328,-0.3357,-0.3393,-0.3407,-0.3225,-0.3224,-0.3223,-0.3223,0,0,-0.2792,-0.2858,-0.2876,-0.2905,-0.2959,-0.3007,-0.3072,-0.3133,-0.3166,-0.3212,-0.3268,-0.3351,-0.3335,-0.3371,-0.3379,-0.3424,-0.3506,-0.3401,-0.3403,-0.3421,-0.3615,-0.363,-0.3646,-0.3501,-0.3504,-0.3506,-0.3612,0,-0.2892,-0.3008,-0.3018,-0.3122,-0.3178,-0.3171,-0.3228,-0.3268,-0.3288,-0.334,-0.3362,-0.3421,-0.3395,-0.3416,-0.346,-0.3487,-0.3546,-0.3479,-0.3556,-0.3558,-0.3545,-0.3664,-0.368,-0.3778,-0.3625,-0.3628,-0.3629,0,-0.3026,-0.3074,-0.3183,-0.3229,-0.3253,-0.3305,-0.3361,-0.3409,-0.3454,-0.3466,-0.3505,-0.3506,-0.3574,-0.3534,-0.3629,-0.3583,-0.3614,-0.3632,-0.3636,-0.3646,-0.36,-0.3679,-0.3809,-0.3824,-0.3651,-0.3649,-0.3648,0,-0.3102,-0.3194,-0.3271,-0.3296,-0.3351,-0.3387,-0.3412,-0.3454,-0.349,-0.3539,-0.3562,-0.3619,-0.3651,-0.3695,-0.3712,-0.368,-0.3806,-0.3767,-0.3819,-0.3819,-0.3848,-0.3847,-0.3987,-0.3865,-0.3865,-0.3864,-0.3864,0,-0.3215,-0.3282,-0.3306,-0.3354,-0.3429,-0.344,-0.3515,-0.3538,-0.3576,-0.3629,-0.3625,-0.3675,-0.3693,-0.3746,-0.3759,-0.3836,-0.385,-0.3862,-0.3865,-0.3864,-0.3863,-0.3887,-0.3881,-0.3868,-0.3867,-0.3867,-0.3866,0,-0.3314,-0.3332,-0.3416,-0.3461,-0.3473,-0.3527,-0.3566,-0.3612,-0.363,-0.3697,-0.3714,-0.3743,-0.3805,-0.3825,-0.39,-0.3909,-0.3999,-0.3996,-0.3984,-0.3985,-0.4037,-0.4033,-0.42,-0.4223,-0.4084,-0.4085,-0.4086,0,-0.3386,-0.3437,-0.3487,-0.3521,-0.3547,-0.3603,-0.3638,-0.3651,-0.3688,-0.3743,-0.3783,-0.3844,-0.3894,-0.3993,-0.4022,-0.4079,-0.4078,-0.4132,-0.4087,-0.4083,-0.4081,-0.4078,-0.4084,-0.4142,-0.4143,-0.4144,-0.4145,0,-0.3512,-0.3518,-0.3569,-0.3623,-0.3666,-0.3709,-0.3751,-0.378,-0.3798,-0.3841,-0.3903,-0.3942,-0.4017,-0.4079,-0.4137,-0.4163,-0.4158,-0.4159,-0.4174,-0.4175,-0.4167,-0.4173,-0.401,-0.4156,-0.4155,-0.4154,-0.4153,-0.4153,-0.3601,-0.3646,-0.3688,-0.3745,-0.3778,-0.3817,-0.3862,-0.3885,-0.3937,-0.3999,-0.4003,-0.4071,-0.4114,-0.4192,-0.4221,-0.4275,-0.4259,-0.4281,-0.4287,-0.4293,-0.4298,-0.4156,-0.4285,-0.4285,-0.4284,-0.4284,-0.4284,0,-0.3728,-0.3754,-0.3806,-0.3865,-0.3909,-0.3898,-0.3943,-0.3982,-0.4042,-0.4082,-0.413,-0.4202,-0.426,-0.4292,-0.4351,-0.4388,-0.4387,-0.4403,-0.4402,-0.4409,-0.4308,-0.4289,-0.4403,-0.4403,-0.4403,-0.4403,-0.4403,-0.4403,-0.38,-0.3877,-0.3888,-0.398,-0.4006,-0.4072,-0.4099,-0.4135,-0.4167,-0.4247,-0.4295,-0.4315,-0.4352,-0.4413,-0.4466,-0.4474,-0.4497,-0.4515,-0.4522,-0.4428,-0.4416,-0.4404,-0.4387,-0.4519,-0.452,-0.4618,-0.4619,-0.462]},{"header":{"parameterUnit":"m.s-1","parameterCategory":1,"la1":30.2991,"la2":30.254,"lo1":-89.0895,"lo2":-89.0444,"dx":0.0017,"dy":0.0017,"nx":28,"ny":28,"refTime":"2022-11-15T09:00:00:Z","depth":0,"parameterNumber":3,"parameterNumberName":"V-component_of_WINDS"},"data":[0,0,0,0,0,0,0,0,0,0,0,0,0,0,0,0,0,0,0,0,0,0,0,0,0,0,0,0,0,0,0,0,0,0,0,0,0,0,0,0,0,0,0,0,0,0,0,0,0,0,0,0,0,0,0,0,0,0,-6.2418,-6.242,0,-6.2561,-6.2563,-6.2565,-6.249,-6.2486,-6.2482,-6.2478,-6.2621,-6.2628,-6.2636,0,0,0,0,0,0,0,0,0,0,0,0,0,-6.2074,-6.2081,-6.2418,-6.242,-6.2422,-6.2561,-6.2563,-6.2565,-6.249,-6.2486,-6.2481,-6.2477,-6.2619,-6.2627,-6.2636,0,0,0,0,0,0,0,0,0,0,0,0,0,-6.2221,-6.2083,-6.2418,-6.2401,-6.2401,-6.2561,-6.2563,-6.2566,-6.2491,-6.2486,-6.248,-6.2475,-6.2616,-6.2627,-6.2637,-6.282,0,0,-6.2671,-6.2676,0,0,0,0,0,0,0,0,-6.2213,-6.2234,-6.2402,-6.2403,-6.2403,-6.2502,-6.2494,-6.2651,-6.2493,-6.2457,-6.2478,-6.2472,-6.2586,-6.2599,-6.2638,-6.2827,-6.2833,-6.2672,-6.2679,-6.2684,-6.2687,0,0,0,0,0,0,0,-6.2203,-6.2227,-6.2474,-6.2404,-6.2405,-6.2385,-6.24,-6.2524,-6.2552,-6.246,-6.2455,-6.2473,-6.2585,-6.2628,-6.2641,-6.2835,-6.2672,-6.2682,-6.2688,-6.2693,-6.3179,-6.3185,0,0,0,0,0,0,-6.2194,-6.2219,-6.247,-6.2479,-6.2292,-6.2396,-6.2412,-6.2476,-6.255,-6.2556,-6.2478,-6.2469,-6.2612,-6.2628,-6.2646,-6.2864,-6.2683,-6.2694,-6.27,-6.3173,-6.318,-6.3187,0,0,0,0,0,0,-6.2187,-6.2217,-6.2464,-6.2348,-6.2378,-6.2408,-6.248,-6.2482,-6.2525,-6.2564,-6.2568,-6.2517,-6.2608,-6.263,-6.2777,-6.2868,-6.2699,-6.2709,-6.3165,-6.3175,-6.3184,-6.3302,0,0,0,0,0,0,-6.2178,-6.2215,-6.2286,-6.235,-6.2384,-6.2595,-6.2486,-6.2489,-6.2544,-6.2534,-6.2601,-6.2607,-6.2605,-6.2761,-6.2788,-6.288,-6.2717,-6.3157,-6.3169,-6.3181,-6.329,-6.3314,-6.3335,0,0,0,0,0,-6.2166,-6.2313,-6.229,-6.2321,-6.2474,-6.2601,-6.262,-6.2616,-6.2552,-6.2623,-6.2648,-6.2605,-6.2854,-6.2777,-6.2807,-6.2903,-6.3151,-6.3166,-6.318,-6.328,-6.331,-6.3335,0,0,0,0,0,0,-6.2258,-6.2321,-6.2297,-6.247,-6.2531,-6.2588,-6.2677,-6.2648,-6.2727,-6.2714,-6.2704,-6.272,-6.2873,-6.2902,-6.2816,-6.3083,-6.2992,-6.3013,-6.3058,-6.3087,-6.3109,-6.3098,-6.2727,0,0,0,0,0,-6.2299,-6.2398,-6.2447,-6.2595,-6.2627,-6.2647,-6.2702,-6.2694,-6.2756,-6.2781,-6.2817,-6.2877,-6.2968,-6.3029,-6.3116,-6.3294,-6.3307,-6.3375,-6.3397,-6.3415,-6.3433,-6.3528,-6.3559,-6.3233,-6.3233,-6.3233,0,0,-6.2384,-6.2431,-6.2494,-6.2615,-6.2661,-6.2763,-6.2669,-6.2781,-6.2855,-6.2797,-6.2939,-6.2967,-6.3033,-6.3197,-6.327,-6.3226,-6.3526,-6.3433,-6.3448,-6.3456,-6.3546,-6.3577,-6.3604,-6.3243,-6.3241,-6.324,0,0,-6.2591,-6.2637,-6.2764,-6.2813,-6.2884,-6.2896,-6.2927,-6.2989,-6.3006,-6.3148,-6.3106,-6.3193,-6.3352,-6.3401,-6.3447,-6.3671,-6.3634,-6.3699,-6.3816,-6.3909,-6.3935,-6.3957,-6.4037,-6.4065,-6.3717,-6.3717,-6.3717,0,-6.2687,-6.284,-6.2833,-6.2948,-6.3002,-6.2955,-6.3084,-6.313,-6.3226,-6.3263,-6.3212,-6.341,-6.3451,-6.3625,-6.368,-6.3718,-6.3752,-6.3691,-6.3932,-6.3954,-6.3975,-6.4051,-6.4081,-6.3724,-6.3723,-6.3723,-6.3722,0,-6.2954,-6.306,-6.3154,-6.3249,-6.3314,-6.3435,-6.3445,-6.3511,-6.3497,-6.3514,-6.3658,-6.3706,-6.3801,-6.3841,-6.3828,-6.4013,-6.3983,-6.3933,-6.3841,-6.4014,-6.4085,-6.4114,-6.3735,-6.3732,-6.373,-6.3728,0,0,-6.3224,-6.3313,-6.3348,-6.339,-6.3465,-6.3546,-6.3664,-6.3758,-6.3814,-6.3881,-6.3979,-6.4113,-6.4067,-6.4119,-6.411,-6.4192,-6.4365,-6.4131,-6.4132,-6.4172,-6.4571,-6.4608,-6.4642,-6.4341,-6.4347,-6.4351,-6.4565,0,-6.3435,-6.3644,-6.3641,-6.3833,-6.393,-6.3887,-6.3989,-6.4045,-6.4064,-6.4147,-6.4167,-6.4263,-6.4194,-6.4225,-6.4304,-6.4328,-6.4445,-6.4312,-6.4431,-6.4435,-6.4416,-6.4679,-6.472,-6.4919,-6.4592,-6.4597,-6.4601,0,-6.371,-6.3787,-6.399,-6.405,-6.409,-6.4183,-6.4268,-6.4349,-6.4411,-6.4419,-6.4477,-6.4455,-6.4573,-6.4478,-6.464,-6.4549,-6.4597,-6.4616,-6.4623,-6.4634,-6.4528,-6.4697,-6.4983,-6.5013,-6.4644,-6.4641,-6.4637,0,-6.3886,-6.404,-6.4181,-6.4219,-6.4292,-6.4358,-6.4391,-6.4447,-6.4504,-6.4578,-6.4614,-6.47,-6.4748,-6.4814,-6.4816,-6.4747,-6.4979,-6.4884,-6.4987,-6.4987,-6.5038,-6.5035,-6.5336,-6.5069,-6.5069,-6.5068,-6.5068,0,-6.4123,-6.4248,-6.4261,-6.4348,-6.4487,-6.4481,-6.4618,-6.4645,-6.4695,-6.4785,-6.4751,-6.4836,-6.4833,-6.4919,-6.492,-6.5053,-6.5075,-6.5083,-6.5082,-6.5086,-6.5085,-6.5118,-6.5104,-6.5076,-6.5075,-6.5073,-6.5072,0,-6.4343,-6.4357,-6.4508,-6.4565,-6.4582,-6.4682,-6.473,-6.4811,-6.4826,-6.494,-6.4966,-6.499,-6.5089,-6.5097,-6.5211,-6.5212,-6.5373,-6.5356,-6.5353,-6.535,-6.5452,-6.5442,-6.5785,-6.5829,-6.5534,-6.5536,-6.5539,0,-6.4493,-6.4589,-6.4656,-6.4715,-6.4752,-6.4846,-6.4904,-6.4902,-6.4962,-6.504,-6.5112,-6.5207,-6.5284,-6.5443,-6.5469,-6.5556,-6.5541,-6.5655,-6.5554,-6.5555,-6.5542,-6.5537,-6.5546,-6.5675,-6.5678,-6.5681,-6.5683,0,-6.4758,-6.476,-6.4845,-6.4933,-6.5003,-6.5071,-6.5135,-6.5185,-6.5189,-6.5259,-6.5361,-6.542,-6.5537,-6.5632,-6.5716,-6.5748,-6.5717,-6.5714,-6.5743,-6.5748,-6.5742,-6.5746,-6.5406,-6.5707,-6.5704,-6.5703,-6.5701,-6.57,-6.4947,-6.503,-6.5091,-6.5186,-6.5234,-6.5294,-6.5374,-6.5399,-6.5484,-6.558,-6.5572,-6.5684,-6.5741,-6.5852,-6.5891,-6.5977,-6.5938,-6.5979,-6.599,-6.6,-6.6011,-6.5728,-6.5992,-6.5991,-6.5991,-6.599,-6.599,0,-6.521,-6.5247,-6.5335,-6.5426,-6.5501,-6.5465,-6.5534,-6.5598,-6.5697,-6.5754,-6.5831,-6.5946,-6.6038,-6.6071,-6.616,-6.6222,-6.621,-6.6245,-6.6241,-6.6248,-6.604,-6.6007,-6.6254,-6.6254,-6.6254,-6.6254,-6.6254,-6.6254,-6.5356,-6.5493,-6.5503,-6.5663,-6.5698,-6.5808,-6.585,-6.5905,-6.5951,-6.6082,-6.6158,-6.618,-6.6227,-6.6319,-6.64,-6.6408,-6.6442,-6.6484,-6.6485,-6.629,-6.6263,-6.6238,-6.6206,-6.6491,-6.6492,-6.6686,-6.6688,-6.6689]}]]